User: anonymous   Login
Location: Unspecified
(0.0000°N, 0.0000°E)
Time: 08:54:04
(UTC+00:00)
Language:

USA 110 - Orbit

View from above orbital plane
View from above orbital plane
View from above satellite
View from above satellite

Ground track
Ground track

The orbit data is extracted from the following two-line orbital elements,

1 23567U 95022A   17219.87502252 0.00000000  00000-0  00000-0 0    05
2 23567  13.8905  38.6917 0058412  90.8256 269.8624  1.00270000    02
Epoch (UTC): 07 August 2017 21:00:01
Eccentricity: 0.0058412
inclination: 13.8905°
perigee height: 35540 km
apogee height: 36033 km
right ascension of ascending node: 38.6917°
argument of perigee: 90.8256°
revolutions per day: 1.00270000
mean anomaly at epoch: 269.8624°
orbit number at epoch: 0

The dashed part of the orbit path shows where the satellite is in the earth's shadow,  

DLR